[[{"header":{"parameterUnit":"m.s-1","parameterCategory":1,"la1":30.2992,"la2":30.254,"lo1":-89.0895,"lo2":-89.0443,"dy":0.0025,"dx":0.0025,"nx":19,"ny":19,"refTime":"2026-04-18T09:00:00:Z","depth":0,"parameterNumber":2,"parameterNumberName":"U-component_of_WINDS"},"data":[0,0,0,2.482,2.4822,2.4934,2.4935,2.5078,2.5079,0,0,0,0,0,0,0,0,0,0,0,2.479,2.4791,2.4819,2.4822,2.4934,2.4935,2.5078,2.5079,0,0,0,0,0,0,0,0,0,0,0,2.4789,2.4791,2.4792,2.4823,2.4934,2.4935,2.5078,2.4992,0,0,0,0,0,0,0,0,0,0,2.4883,2.486,2.479,2.4792,2.4823,2.4934,2.4935,2.4988,2.4998,2.5028,0,2.5059,0,2.5072,2.5089,2.509,0,0,0,2.4819,2.4852,2.4879,2.4792,2.4825,2.4934,2.4883,2.4993,2.5004,2.5041,2.5061,2.5067,2.5074,2.509,2.5091,2.5282,2.5283,0,0,2.4813,2.4811,2.4872,2.4886,2.4872,2.4879,2.4886,2.5,2.5021,2.5062,2.507,2.5077,2.5091,2.5092,2.5281,2.5283,0,0,0,2.4797,2.4807,2.4831,2.4881,2.4901,2.4883,2.4891,2.5016,2.5024,2.5071,2.5078,2.5092,2.5094,2.528,2.5282,2.533,0,0,0,2.4794,2.4798,2.4829,2.4829,2.4899,2.496,2.4904,2.5016,2.5029,2.5078,2.5092,2.5095,2.5279,2.5281,2.5326,2.5352,0,0,0,2.4781,2.4796,2.4814,2.4828,2.4877,2.4959,2.4973,2.5019,2.5034,2.509,2.5096,2.5279,2.5281,2.5323,2.5346,2.5399,0,0,0,2.4767,2.4856,2.4815,2.4916,2.4876,2.4989,2.4973,2.5057,2.5111,2.5093,2.5279,2.5282,2.5322,2.5343,2.5396,2.5441,2.5461,0,0,2.4878,2.4869,2.4929,2.4895,2.5015,2.4972,2.5097,2.5149,2.5156,2.5239,2.5244,2.5327,2.5346,2.5398,2.5577,2.5593,0,0,0,2.4963,2.5006,2.5038,2.509,2.5132,2.5168,2.5201,2.5219,2.529,2.5199,2.5362,2.5373,2.5404,2.5426,2.5439,2.5464,2.5293,2.5292,2.5292,2.5116,2.512,2.5217,2.5234,2.5285,2.5316,2.5356,2.5385,2.5375,2.5413,2.5437,2.5546,2.5571,2.5581,2.5607,2.5464,2.5465,2.5465,2.5465,2.5276,2.5335,2.5318,2.5407,2.5409,2.5483,2.5515,2.5505,2.5571,2.5529,2.5556,2.5507,2.5599,2.5621,2.5469,2.5468,2.5467,2.5467,2.5467,2.5374,2.5402,2.5424,2.5497,2.5553,2.5566,2.563,2.5631,2.5631,2.5658,2.5681,2.568,2.5677,2.567,2.567,2.5671,2.5671,2.5671,2.5671,2.5466,2.5489,2.5543,2.5594,2.5625,2.5667,2.5697,2.5728,2.576,2.5755,2.5755,2.5738,2.5608,2.5574,2.5677,2.5676,2.5675,2.5675,2.5674,2.5621,2.5586,2.5671,2.5702,2.5759,2.5812,2.5812,2.5872,2.5897,2.5928,2.5906,2.581,2.5801,2.579,2.5761,2.5907,2.5907,2.5907,2.5907,2.5702,2.5698,2.5782,2.5832,2.5881,2.5889,2.598,2.6003,2.6022,2.6036,2.6016,2.5978,2.5968,2.5964,2.595,2.5922,2.6106,2.6106,2.6107,2.5796,2.5796,2.5875,2.5894,2.5938,2.5974,2.6058,2.6113,2.6127,2.6114,2.6047,2.6038,2.5978,2.5959,2.5943,2.5921,2.5871,0,0]},{"header":{"parameterUnit":"m.s-1","parameterCategory":1,"la1":30.2992,"la2":30.254,"lo1":-89.0895,"lo2":-89.0443,"dy":0.0025,"dx":0.0025,"nx":19,"ny":19,"refTime":"2026-04-18T09:00:00:Z","depth":0,"parameterNumber":3,"parameterNumberName":"V-component_of_WINDS"},"data":[0,0,0,4.333,4.3334,4.3487,4.3487,4.3686,4.3688,0,0,0,0,0,0,0,0,0,0,0,4.3292,4.3293,4.333,4.3334,4.3487,4.3488,4.3685,4.3688,0,0,0,0,0,0,0,0,0,0,0,4.3291,4.3293,4.3295,4.3335,4.3487,4.3488,4.3685,4.3567,0,0,0,0,0,0,0,0,0,0,4.3418,4.339,4.3292,4.3295,4.3336,4.3487,4.3488,4.3562,4.3575,4.3619,0,4.3664,0,4.368,4.3701,4.3702,0,0,0,4.3328,4.3379,4.3415,4.3295,4.3337,4.3486,4.3416,4.3569,4.3584,4.3637,4.3667,4.3674,4.3683,4.3703,4.3704,4.3988,4.3989,0,0,4.332,4.3322,4.3405,4.3425,4.3407,4.3411,4.3421,4.3578,4.361,4.3668,4.3679,4.3686,4.3704,4.3706,4.3986,4.3988,0,0,0,4.3299,4.3316,4.3348,4.3417,4.3444,4.3416,4.3427,4.3603,4.3613,4.3681,4.3688,4.3705,4.3708,4.3985,4.3987,4.4069,0,0,0,4.3294,4.3304,4.3344,4.3347,4.3442,4.3527,4.3449,4.3602,4.362,4.3687,4.3705,4.371,4.3983,4.3986,4.4063,4.4106,0,0,0,4.3279,4.3302,4.3327,4.3347,4.3413,4.3524,4.3543,4.3606,4.3625,4.3702,4.3711,4.3982,4.3985,4.4057,4.4097,4.418,0,0,0,4.3263,4.3397,4.3329,4.3481,4.3412,4.3575,4.3542,4.3663,4.3739,4.3707,4.3983,4.3987,4.4056,4.4092,4.4174,4.4249,4.4282,0,0,4.3433,4.3418,4.3507,4.345,4.3626,4.3551,4.3738,4.3804,4.3808,4.3926,4.3933,4.4065,4.4097,4.4179,4.4463,4.4489,0,0,0,4.3561,4.3625,4.3671,4.3746,4.3802,4.3851,4.389,4.3914,4.4015,4.3871,4.4118,4.4137,4.4185,4.422,4.4242,4.4281,4.4004,4.4004,4.4003,4.3804,4.3803,4.395,4.3967,4.4039,4.4077,4.4133,4.4171,4.4149,4.4207,4.4241,4.4414,4.4456,4.4473,4.4514,4.4282,4.4283,4.4283,4.4283,4.4051,4.414,4.4108,4.4238,4.4235,4.4342,4.4382,4.4362,4.4459,4.4389,4.4431,4.4353,4.4501,4.4537,4.4289,4.4288,4.4287,4.4287,4.4286,4.4209,4.4251,4.428,4.4386,4.4466,4.4477,4.4572,4.4565,4.4559,4.4601,4.4635,4.4634,4.4629,4.4618,4.4619,4.4619,4.462,4.462,4.4621,4.436,4.439,4.4473,4.4542,4.4587,4.4646,4.4683,4.4726,4.4771,4.4758,4.4758,4.4728,4.4517,4.4463,4.463,4.4628,4.4627,4.4626,4.4626,4.4608,4.4551,4.4679,4.4725,4.4803,4.4882,4.4872,4.496,4.4994,4.504,4.5,4.4846,4.4829,4.4811,4.4766,4.5002,4.5002,4.5002,4.5002,4.474,4.4731,4.4859,4.4932,4.5002,4.5006,4.5145,4.5174,4.5193,4.5213,4.5178,4.5118,4.5101,4.5094,4.507,4.5028,4.5325,4.5326,4.5326,4.4891,4.4889,4.5011,4.5033,4.5093,4.5144,4.5273,4.5354,4.5364,4.5339,4.5228,4.5214,4.5118,4.5087,4.5058,4.5022,4.4944,0,0]}]]